Location: Fort Wayne
(41.1310°N, 85.1290°W)
Time: 23:25:31
(UTC-04:00)

Courier 1B Rocket - All Passes

Search period start: 27 September 2016 00:00
Search period end: 07 October 2016 00:00
Orbit: 920 x 1202 km, 28.2° (Epoch: 26 September)

Date Brightness Start Highest point End Pass type
(mag) Time Alt. Az. Time Alt. Az. Time Alt. Az.
27 Sep - 04:44:09 10° SSW 04:47:53 16° SSE 04:51:40 10° SE visible
27 Sep - 06:35:16 10° SW 06:40:20 25° S 06:45:35 10° ESE visible
27 Sep - 08:27:57 10° WSW 08:32:56 23° S 08:38:10 10° SE daylight
27 Sep - 10:22:38 10° SW 10:25:29 13° SSW 10:28:23 10° S daylight
28 Sep - 03:44:49 10° S 03:47:16 12° SSE 03:49:42 10° SE visible
28 Sep - 05:34:50 10° SW 05:39:37 23° S 05:44:31 10° ESE visible
28 Sep - 07:27:07 10° WSW 07:32:10 25° S 07:37:26 10° SE daylight
28 Sep - 09:20:51 10° SW 09:24:44 16° SSW 09:28:45 10° SSE daylight
29 Sep - 04:34:34 10° SSW 04:38:56 20° SSE 04:43:21 10° ESE visible
29 Sep - 06:26:25 10° SW 06:31:26 25° S 06:36:38 10° SE visible
29 Sep - 08:19:36 10° WSW 08:24:00 19° SSW 08:28:35 10° SSE daylight
30 Sep - 03:34:33 10° SSW 03:38:17 16° SSE 03:42:01 10° SE visible
30 Sep - 05:25:48 10° SW 05:30:44 25° S 05:35:45 10° ESE visible
30 Sep - 07:18:34 10° WSW 07:23:16 22° S 07:28:08 10° SE daylight
30 Sep - 09:13:41 10° SW 09:15:44 11° SSW 09:17:49 10° S daylight
01 Oct - 02:35:02 10° S 02:37:39 13° SSE 02:40:15 10° SE night (unlit)
01 Oct - 04:25:18 10° SW 04:30:03 23° S 04:34:48 10° ESE visible
01 Oct - 06:17:43 10° WSW 06:22:34 24° S 06:27:32 10° SE visible
01 Oct - 08:11:37 10° SW 08:15:03 15° SSW 08:18:33 10° SSE daylight
02 Oct - 03:24:56 10° SSW 03:29:22 20° SSE 03:33:46 10° ESE visible
02 Oct - 05:16:56 10° SW 05:21:51 25° S 05:26:50 10° SE visible
02 Oct - 07:10:15 10° WSW 07:14:21 18° SSW 07:18:34 10° SSE visible
03 Oct - 02:24:47 10° SSW 02:28:42 17° SSE 02:32:33 10° SE night (unlit)
03 Oct - 04:16:14 10° SW 04:21:10 24° S 04:26:05 10° SE visible
03 Oct - 06:09:09 10° WSW 06:13:41 21° S 06:18:16 10° SE visible
03 Oct - 08:05:03 10° SSW 08:06:04 10° SSW 08:07:05 10° SSW daylight
04 Oct - 01:25:02 10° S 01:28:02 14° SSE 01:30:59 10° SE night (unlit)
04 Oct - 03:15:38 10° SW 03:20:29 23° S 03:25:14 10° ESE visible
04 Oct - 05:08:11 10° WSW 05:13:00 23° S 05:17:49 10° SE visible
04 Oct - 07:02:21 10° SW 07:05:25 14° SSW 07:08:31 10° S visible
05 Oct - 00:27:01 10° SSE 00:27:21 10° SSE 00:27:41 10° SSE night (unlit)
05 Oct - 02:15:07 10° SW 02:19:47 21° SSE 02:24:19 10° ESE night (unlit)
05 Oct - 04:07:19 10° SW 04:12:19 25° S 04:17:14 10° SE visible
05 Oct - 06:00:49 10° SW 06:04:46 17° SSW 06:08:44 10° SSE visible
06 Oct - 01:14:48 10° SSW 01:19:04 18° SSE 01:23:13 10° ESE night (unlit)
06 Oct - 03:06:30 10° SW 03:11:35 25° S 03:16:34 10° SE night (unlit)
06 Oct - 04:59:35 10° WSW 05:04:06 21° SSW 05:08:35 10° SE visible
